OK1ALX-6 Weather Reports


Display with metric or nautical units.
time (UTC)temp
F
wind
direction
speed
MPH
gust
MPH
rain 1hr
in
rain 24hr
in
rain mn
in
humidity
%
barometer
mb
20260506145003 65 335 2.0 4.0 0.05 0.05 0.05 71 1009.3
20260506144003 64 304 3.0 3.0 0.05 0.05 0.05 74 1009.4
20260506143003 61 296 3.0 4.0 0.05 0.05 0.05 79 1009.9
20260506142003 63 331 1.0 4.0 0.05 0.05 0.05 76 1010.0
20260506141003 64 62 1.0 4.0 0.03 0.03 0.03 75 1010.0
20260506140003 69 52 2.0 4.0 0.00 0.00 0.00 55 1009.6
20260506135003 70 29 2.0 6.0 0.00 0.00 0.00 54 1009.4
20260506134003 70 6 2.0 4.0 0.00 0.00 0.00 52 1009.3
20260506133003 70 43 2.0 6.0 0.00 0.00 0.00 52 1009.3
20260506132003 71 356 1.0 4.0 0.00 0.00 0.00 52 1009.5
20260506131003 71 347 2.0 4.0 0.00 0.00 0.00 49 1009.7
20260506130003 69 331 1.0 4.0 0.00 0.00 0.00 54 1010.1
20260506125003 69 324 2.0 4.0 0.00 0.00 0.00 57 1010.1
20260506124003 71 352 2.0 4.0 0.00 0.00 0.00 53 1009.9
20260506123003 71 5 2.0 4.0 0.00 0.00 0.00 49 1010.0
20260506122003 71 330 1.0 4.0 0.00 0.00 0.00 47 1010.2
20260506121003 71 300 2.0 4.0 0.00 0.00 0.00 49 1010.4
20260506120003 71 271 2.0 3.0 0.00 0.00 0.00 47 1010.3
20260506115003 72 347 1.0 4.0 0.00 0.00 0.00 50 1010.0
20260506114003 69 314 2.0 6.0 0.00 0.00 0.00 51 1010.4
20260506113003 71 327 2.0 6.0 0.00 0.00 0.00 50 1010.4
20260506112003 69 350 2.0 6.0 0.00 0.00 0.00 52 1010.5
20260506111003 69 15 2.0 4.0 0.00 0.00 0.00 53 1010.9
20260506110003 67 241 3.0 4.0 0.00 0.00 0.00 54 1011.0
20260506105003 70 277 2.0 7.0 0.00 0.00 0.00 51 1011.1
20260506104003 70 248 2.0 7.0 0.00 0.00 0.00 51 1011.1
20260506103003 67 270 4.0 8.0 0.00 0.00 0.00 55 1011.6
20260506102003 67 264 2.0 7.0 0.00 0.00 0.00 52 1011.5
20260506101003 68 245 2.0 8.0 0.00 0.00 0.00 53 1011.7
20260506100003 67 211 3.0 7.0 0.00 0.00 0.00 53 1011.7
20260506095003 67 228 3.0 7.0 0.00 0.00 0.00 56 1011.7
20260506094003 66 263 2.0 7.0 0.00 0.00 0.00 59 1011.9
20260506093003 65 276 4.0 8.0 0.00 0.00 0.00 59 1012.0
20260506092003 65 276 4.0 9.0 0.00 0.00 0.00 61 1011.9
20260506091003 65 247 3.0 6.0 0.00 0.00 0.00 62 1012.1
20260506090003 63 292 5.0 8.0 0.00 0.00 0.00 63 1012.2
20260506085003 64 273 4.0 9.0 0.00 0.00 0.00 63 1012.0
20260506084006 63 248 4.0 8.0 0.00 0.00 0.00 62 1012.1
20260506083003 63 244 5.0 9.0 0.00 0.00 0.00 61 1012.4
20260506082003 63 247 5.0 9.0 0.00 0.00 0.00 63 1011.9
20260506081003 62 251 6.0 10.0 0.00 0.00 0.00 63 1012.2
20260506073003 62 261 6.0 13.0 0.00 0.00 0.00 66 1012.5
20260506072003 62 274 5.0 11.0 0.00 0.00 0.00 67 1012.6
20260506071003 62 277 7.0 13.0 0.00 0.00 0.00 68 1012.4
20260506062003 61 277 4.0 9.0 0.00 0.00 0.00 69 1012.2
20260506061003 60 258 2.0 6.0 0.00 0.00 0.00 72 1012.2
20260506051003 58 206 2.0 4.0 0.00 0.00 0.00 80 1012.4
20260506045003 57 154 0.0 2.0 0.00 0.00 0.00 82 1012.4
20260506044003 57 133 0.0 1.0 0.00 0.00 0.00 83 1012.3
20260506043003 55 133 0.0 1.0 0.00 0.00 0.00 88 1012.2
20260506042003 54 133 0.0 1.0 0.00 0.00 0.00 91 1012.6
20260506040003 54 0 0.0 0.0 0.00 0.00 0.00 93 1012.2
20260506035003 53 132 0.0 2.0 0.00 0.00 0.00 94 1012.0
20260506034003 54 130 1.0 2.0 0.00 0.00 0.00 94 1011.6
20260506033004 54 0 0.0 0.0 0.00 0.00 0.00 93 1011.9
20260506032003 54 0 0.0 0.0 0.00 0.00 0.00 93 1011.9
20260506031003 54 121 0.0 1.0 0.00 0.00 0.00 93 1011.8
20260506030003 55 125 1.0 1.0 0.00 0.00 0.00 93 1011.8
20260506025006 55 126 0.0 1.0 0.00 0.00 0.00 92 1012.2
20260506024003 56 127 0.0 2.0 0.00 0.00 0.00 92 1011.8
20260506023003 56 133 0.0 2.0 0.00 0.00 0.00 91 1012.0
20260506022003 56 129 0.0 2.0 0.00 0.00 0.00 91 1011.8
20260506021003 56 0 0.0 0.0 0.00 0.00 0.00 91 1011.9
20260506020003 56 137 0.0 1.0 0.00 0.00 0.00 91 1011.7
20260506015003 56 106 0.0 1.0 0.00 0.00 0.00 91 1012.0
20260506014003 56 0 0.0 0.0 0.00 0.00 0.00 91 1011.7
20260506013003 56 77 1.0 3.0 0.00 0.00 0.00 91 1011.5
20260506012003 56 51 0.0 3.0 0.00 0.00 0.00 91 1011.7
20260506011003 56 27 1.0 2.0 0.00 0.00 0.00 90 1011.6
20260506010003 56 21 0.0 2.0 0.00 0.00 0.00 90 1011.8
20260506005003 56 358 0.0 2.0 0.00 0.00 0.00 90 1011.4
20260506004003 56 340 1.0 3.0 0.00 0.00 0.00 90 1011.8
20260506003003 57 333 2.0 4.0 0.00 0.00 0.00 89 1011.7
20260506002003 57 338 1.0 3.0 0.00 0.00 0.00 89 1011.4
20260506001003 58 316 3.0 7.0 0.00 0.00 0.00 89 1011.6
20260506000003 58 311 5.0 9.0 0.00 0.00 0.00 88 1011.6
20260505235003 58 331 4.0 8.0 0.00 0.00 0.00 87 1011.4
20260505234003 58 326 3.0 7.0 0.00 0.00 0.00 86 1011.4
20260505233003 59 315 4.0 9.0 0.00 0.00 0.00 85 1011.2
20260505232003 59 310 7.0 14.0 0.00 0.00 0.00 84 1011.0
20260505231003 60 313 9.0 16.0 0.00 0.00 0.00 83 1011.7
20260505230003 60 299 8.0 15.0 0.00 0.00 0.00 81 1011.6
20260505225003 61 289 6.0 15.0 0.00 0.00 0.00 79 1011.1
20260505224003 62 289 7.0 18.0 0.00 0.00 0.00 76 1011.0
20260505223003 63 184 1.0 3.0 0.00 0.00 0.00 62 1010.3
20260505222003 64 187 2.0 6.0 0.00 0.00 0.00 61 1010.1
20260505221004 64 233 2.0 7.0 0.00 0.00 0.00 61 1010.1
20260505220011 64 234 3.0 6.0 0.00 0.00 0.00 62 1009.7
20260505215003 64 241 5.0 11.0 0.00 0.00 0.00 63 1010.3
20260505214011 64 110 2.0 7.0 0.00 0.00 0.00 60 1009.0
20260505213003 64 99 2.0 6.0 0.00 0.00 0.00 61 1009.0
20260505212003 64 108 1.0 6.0 0.00 0.00 0.00 63 1008.9
20260505211003 64 107 2.0 7.0 0.00 0.00 0.00 63 1008.9
20260505210003 62 130 1.0 2.0 0.00 0.00 0.00 69 1008.9
20260505205003 61 0 0.0 0.0 0.00 0.00 0.00 76 1009.3
20260505204003 62 77 1.0 3.0 0.00 0.00 0.00 76 1009.4
20260505203003 61 77 1.0 3.0 0.00 0.00 0.00 77 1009.3
20260505202003 61 0 0.0 0.0 0.00 0.00 0.00 78 1009.3
20260505201003 61 83 0.0 1.0 0.00 0.00 0.00 78 1009.0
20260505200003 62 95 1.0 2.0 0.00 0.00 0.00 77 1009.0
20260505195003 62 120 1.0 2.0 0.00 0.00 0.00 77 1009.0
20260505194003 62 125 2.0 4.0 0.00 0.00 0.00 77 1009.1
20260505193003 62 133 3.0 7.0 0.00 0.00 0.00 78 1009.2
20260505192003 62 137 3.0 4.0 0.00 0.00 0.00 78 1009.0
20260505191003 62 131 2.0 3.0 0.00 0.00 0.00 76 1009.0
20260505190003 62 133 1.0 3.0 0.00 0.00 0.00 76 1009.1
20260505185003 63 0 0.0 0.0 0.00 0.00 0.00 76 1008.9
20260505184003 63 0 0.0 0.0 0.00 0.00 0.00 76 1008.9
20260505183003 63 0 0.0 0.0 0.00 0.00 0.00 76 1009.0
20260505182003 63 0 0.0 0.0 0.00 0.00 0.00 75 1009.2
20260505181003 63 320 0.0 2.0 0.00 0.00 0.00 75 1009.1
20260505180003 63 317 3.0 4.0 0.00 0.00 0.00 74 1009.4
20260505175003 64 315 3.0 6.0 0.00 0.00 0.00 72 1009.5
20260505174003 65 314 4.0 9.0 0.00 0.00 0.00 69 1009.3
20260505173003 65 317 3.0 7.0 0.00 0.00 0.00 68 1009.5
20260505172003 65 311 6.0 11.0 0.00 0.00 0.00 69 1009.4
20260505171003 66 308 6.0 14.0 0.00 0.00 0.00 65 1009.3
20260505170003 67 296 7.0 11.0 0.00 0.00 0.00 63 1009.3
20260505165003 68 292 7.0 14.0 0.00 0.00 0.00 60 1009.0
20260505164003 69 289 5.0 14.0 0.00 0.00 0.00 58 1009.0
20260505163003 70 263 5.0 9.0 0.00 0.00 0.00 53 1008.7
20260505162003 73 231 2.0 9.0 0.00 0.00 0.00 49 1008.5
20260505161003 74 140 2.0 4.0 0.00 0.00 0.00 44 1008.4
20260505153003 75 133 2.0 8.0 0.00 0.00 0.00 43 1008.4
20260505152003 75 126 3.0 6.0 0.00 0.00 0.00 41 1008.3
20260505151003 76 117 1.0 4.0 0.00 0.00 0.00 41 1009.9